{"data":{"norad_id":68744,"intl_designator":"2026-082S","name":"STARLINK-37344","alt_names":[],"object_type":"PAYLOAD","status":"ACTIVE","operator":null,"country":"US","launch_date":"2026-04-15","launch_site_code":"AFWTR","launch_vehicle":null,"mission":null,"orbit_class":"UNKNOWN","rcs_meters":null,"size_class":null,"mass_kg":null,"dimensions":null,"purposes":["comms"],"wikipedia_slug":null,"has_3d_model":false,"image_url":null,"decayed_at":null,"tle_current":{"epoch":"2026-05-25T04:00:03.998880Z","epoch_age_seconds":60783,"freshness":"FRESH","line1":"1 68744U 26082S   26145.16671295 -.02191018  00000+0 -30845-1 0  9996","line2":"2 68744  97.2853   8.8438 0002419 119.1282 125.5706 15.59802500  6003","mean_motion":15.598025,"eccentricity":0.0002419,"inclination_deg":97.2853,"raan_deg":8.8438,"arg_perigee_deg":119.1282,"mean_anomaly_deg":125.5706,"bstar":-0.030845,"rev_number":600,"period_min":92.319380177939,"perigee_km":386.5914018637,"apogee_km":389.8649693405,"semimajor_km":6766.3651856021,"source":"CELESTRAK","updated_at":"2026-05-25T13:38:22.029452Z"}}}